Weather History for Ft. Stewart, GA

Change the Weather History Date:

Sunday, November 18, 2012

  Actual Average Record
Temperature  
Mean Temperature 56 °F -  
Max Temperature 63 °F 72 °F 85 °F (1978)
Min Temperature 50 °F 49 °F 28 °F (2014)
Degree Days  
Heating Degree Days 8    
Growing Degree Days 6 (Base 50)    
Moisture  
Dew Point 48 °F    
Average Humidity 79    
Maximum Humidity 94    
Minimum Humidity 61    
Precipitation  
Precipitation 0.00 in - - ()
Sea Level Pressure  
Sea Level Pressure 30.25 in    
Wind  
Wind Speed 9 mph (North)    
Max Wind Speed 14 mph    
Max Gust Speed 21 mph    
Visibility 10 miles    
Events Rain    
Averages and records for this station are not official NWS values.
T = Trace of Precipitation, MM = Missing Value Source: NWS Daily Summary

Daily Weather History Graph

Daily Weather History Graph

Search for Another Location

Airport:

Trip Planner

Search our weather history database for the weather conditions in past years. The results will help you decide how hot, cold, wet, or windy it might be!

Date:

Astronomy

Nov. 18, 2012 Rise Set
Actual Time 6:57 AM EST 5:24 PM EST
Civil Twilight 6:31 AM EST 5:51 PM EST
Nautical Twilight 6:02 AM EST 6:20 PM EST
Astronomical Twilight 5:33 AM EST 6:49 PM EST
Moon 11:27 AM EST (11/18) 10:37 PM EST (11/18)
Length of Visible Light 11h 19m
Length of Day
10h 27m
Waxing Crescent, 30% of the Moon is Illuminated
Nov 18
Waxing Crescent
Nov 20
First Quarter
Nov 28
Full
Dec 6
Last Quarter
Dec 13
New

Hourly Weather History & Observations

Time (EST) Temp. Dew Point Humidity Pressure Visibility Wind Dir Wind Speed Gust Speed Precip Events Conditions
12:55 AM 53.4 °F 44.8 °F 73% 30.27 in 10.0 mi North 9.2 mph - N/A   Overcast
1:30 AM 51.8 °F 44.6 °F 76% 30.27 in 10.0 mi North 6.9 mph - N/A   Scattered Clouds
1:55 AM 52.0 °F 44.4 °F 75% 30.26 in 10.0 mi NNE 9.2 mph - N/A   Partly Cloudy
2:38 AM 51.8 °F 44.6 °F 76% 30.26 in 10.0 mi NNE 5.8 mph - N/A   Mostly Cloudy
2:55 AM 52.2 °F 44.2 °F 74% 30.25 in 10.0 mi North 6.9 mph - N/A   Overcast
3:28 AM 51.8 °F 44.6 °F 76% 30.25 in 10.0 mi North 8.1 mph - N/A   Mostly Cloudy
3:55 AM 51.1 °F 44.1 °F 77% 30.26 in 10.0 mi North 6.9 mph - N/A   Clear
4:55 AM 50.7 °F 43.7 °F 77% 30.27 in 10.0 mi North 6.9 mph - N/A   Overcast
5:55 AM 51.3 °F 43.0 °F 73% 30.27 in 10.0 mi North 8.1 mph - N/A   Overcast
6:54 AM 51.8 °F 42.8 °F 71% 30.27 in 10.0 mi North 6.9 mph - N/A   Overcast
6:55 AM 51.6 °F 43.0 °F 72% 30.27 in 10.0 mi North 6.9 mph - N/A   Overcast
7:33 AM 51.8 °F 42.8 °F 71% 30.27 in 10.0 mi North 9.2 mph - N/A   Mostly Cloudy
7:55 AM 52.0 °F 43.3 °F 72% 30.27 in 10.0 mi NNW 8.1 mph - N/A   Overcast
8:47 AM 53.6 °F 44.6 °F 72% 30.29 in 10.0 mi North 12.7 mph 18.4 mph N/A   Scattered Clouds
8:55 AM 54.5 °F 44.1 °F 68% 30.29 in 10.0 mi North 12.7 mph 19.6 mph N/A   Partly Cloudy
9:55 AM 56.8 °F 44.6 °F 64% 30.29 in 10.0 mi North 12.7 mph 19.6 mph N/A   Overcast
10:55 AM 57.7 °F 45.7 °F 64% 30.29 in 10.0 mi North 12.7 mph - N/A   Mostly Cloudy
11:55 AM 60.4 °F 47.3 °F 62% 30.27 in 10.0 mi North 11.5 mph 19.6 mph N/A   Mostly Cloudy
12:55 PM 61.0 °F 48.7 °F 64% 30.24 in 10.0 mi NNE 11.5 mph - N/A   Overcast
1:55 PM 63.3 °F 49.5 °F 61% 30.22 in 10.0 mi North 13.8 mph 18.4 mph N/A   Mostly Cloudy
2:55 PM 63.3 °F 50.0 °F 62% 30.21 in 10.0 mi North 13.8 mph 18.4 mph N/A   Mostly Cloudy
3:50 PM 59.0 °F 48.2 °F 67% 30.22 in 10.0 mi North 13.8 mph 19.6 mph N/A   Overcast
3:55 PM 59.2 °F 49.1 °F 69% 30.22 in 10.0 mi North 12.7 mph - N/A   Overcast
4:55 PM 57.7 °F 49.3 °F 73% 30.23 in 10.0 mi North 11.5 mph 16.1 mph N/A   Overcast
5:43 PM 57.2 °F 50.0 °F 77% 30.24 in 10.0 mi North 11.5 mph 20.7 mph N/A Rain Light Rain
5:50 PM 55.4 °F 50.0 °F 82% 30.24 in 10.0 mi NNE 4.6 mph - N/A   Overcast
5:55 PM 55.8 °F 49.8 °F 80% 30.23 in 10.0 mi Calm Calm - 0.00 in   Overcast
6:55 PM 56.3 °F 49.5 °F 78% 30.25 in 10.0 mi Calm Calm - N/A   Overcast
7:32 PM 57.2 °F 50.0 °F 77% 30.25 in 10.0 mi Calm Calm - N/A Rain Light Rain
7:48 PM 55.4 °F 51.8 °F 88% 30.26 in 10.0 mi NNW 8.1 mph - N/A   Overcast
7:49 PM 55.4 °F 51.8 °F 88% 30.26 in 10.0 mi North 8.1 mph - N/A Rain Light Rain
7:55 PM 54.5 °F 51.6 °F 90% 30.26 in 10.0 mi North 10.4 mph - 0.00 in Rain Light Rain
8:11 PM 53.6 °F 51.8 °F 94% 30.26 in 10.0 mi North 11.5 mph - N/A   Overcast
8:22 PM 53.6 °F 51.8 °F 94% 30.26 in 10.0 mi NNW 3.5 mph - N/A Rain Light Rain
8:43 PM 53.6 °F 51.8 °F 94% 30.26 in 10.0 mi Calm Calm - N/A   Overcast
8:55 PM 53.2 °F 51.6 °F 94% 30.25 in 10.0 mi Calm Calm - 0.00 in   Overcast
9:15 PM 53.6 °F 51.8 °F 94% 30.25 in 10.0 mi Calm Calm - N/A Rain Light Rain
9:32 PM 53.6 °F 51.8 °F 94% 30.25 in 10.0 mi NNW 3.5 mph - N/A   Overcast
9:55 PM 54.0 °F 50.9 °F 89% 30.25 in 10.0 mi North 9.2 mph 16.1 mph 0.00 in   Overcast
10:05 PM 53.6 °F 50.0 °F 88% 30.24 in 10.0 mi North 12.7 mph 19.6 mph N/A   Overcast
10:45 PM 53.6 °F 51.8 °F 94% 30.24 in 10.0 mi North 12.7 mph 19.6 mph N/A   Overcast
10:47 PM 53.6 °F 51.8 °F 94% 30.24 in 10.0 mi North 12.7 mph 19.6 mph N/A Rain Light Rain
10:55 PM 53.8 °F 51.6 °F 92% 30.24 in 10.0 mi North 13.8 mph - 0.00 in Rain Light Rain
10:58 PM 53.6 °F 51.8 °F 94% 30.24 in 10.0 mi North 10.4 mph - N/A   Overcast
11:08 PM 53.6 °F 51.8 °F 94% 30.24 in 10.0 mi North 10.4 mph - N/A   Overcast
11:55 PM 54.3 °F 50.5 °F 87% 30.22 in 10.0 mi North 11.5 mph 18.4 mph 0.00 in   Overcast